[[{"header":{"parameterUnit":"m.s-1","parameterCategory":1,"la1":30.2991,"la2":30.254,"lo1":-89.0895,"lo2":-89.0444,"dy":0.0017,"dx":0.0017,"nx":28,"ny":28,"refTime":"2025-04-18T21:00:00:Z","depth":0,"parameterNumber":2,"parameterNumberName":"U-component_of_WINDS"},"data":[0,0,0,0,0,0,0,0,0,0,0,0,0,0,0,0,0,0,0,0,0,0,0,0,0,0,0,0,0,0,0,0,0,0,0,0,0,0,0,0,0,0,0,0,0,0,0,0,0,0,0,0,0,0,0,0,0,0,-4.5652,-4.5653,0,-4.5769,-4.577,-4.5771,-4.5734,-4.5732,-4.5729,-4.5727,-4.5846,-4.5851,-4.5856,0,0,0,0,0,0,0,0,0,0,0,0,0,-4.5398,-4.5403,-4.5652,-4.5653,-4.5655,-4.5768,-4.577,-4.5771,-4.5735,-4.5732,-4.5729,-4.5726,-4.5844,-4.585,-4.5857,0,0,0,0,0,0,0,0,0,0,0,0,0,-4.5511,-4.5404,-4.5652,-4.565,-4.5651,-4.5768,-4.577,-4.5772,-4.5735,-4.5732,-4.5728,-4.5724,-4.5842,-4.585,-4.5858,-4.5983,0,0,-4.5883,-4.5886,0,0,0,0,0,0,0,0,-4.5504,-4.552,-4.5649,-4.565,-4.5652,-4.5733,-4.5724,-4.5843,-4.5736,-4.5703,-4.5727,-4.5723,-4.5811,-4.5822,-4.5852,-4.5989,-4.5994,-4.5884,-4.5889,-4.5892,-4.5894,0,0,0,0,0,0,0,-4.5497,-4.5515,-4.5698,-4.5651,-4.5653,-4.5644,-4.5656,-4.5746,-4.5777,-4.5706,-4.5704,-4.5718,-4.5811,-4.5844,-4.5854,-4.5995,-4.5883,-4.5891,-4.5896,-4.5899,-4.6241,-4.6245,0,0,0,0,0,0,-4.5488,-4.5509,-4.5694,-4.5701,-4.5567,-4.5651,-4.5665,-4.5711,-4.5776,-4.5782,-4.5721,-4.5716,-4.5832,-4.5845,-4.5858,-4.6009,-4.5892,-4.59,-4.5905,-4.6237,-4.6242,-4.6247,0,0,0,0,0,0,-4.5483,-4.5505,-4.569,-4.5605,-4.5627,-4.566,-4.5712,-4.5715,-4.5747,-4.5787,-4.5792,-4.5749,-4.5829,-4.5847,-4.5952,-4.6012,-4.5903,-4.5911,-4.6232,-4.6239,-4.6245,-4.631,0,0,0,0,0,0,-4.5476,-4.5503,-4.5551,-4.5606,-4.5632,-4.5782,-4.5715,-4.572,-4.5762,-4.5756,-4.5814,-4.582,-4.5828,-4.594,-4.5961,-4.6021,-4.5917,-4.6227,-4.6235,-4.6243,-4.6303,-4.6318,-4.6331,0,0,0,0,0,-4.5467,-4.5564,-4.5553,-4.5576,-4.5692,-4.5785,-4.58,-4.5807,-4.5767,-4.5815,-4.5841,-4.5818,-4.6003,-4.5951,-4.5974,-4.6038,-4.6223,-4.6233,-4.6242,-4.6297,-4.6315,-4.6331,0,0,0,0,0,0,-4.5514,-4.5571,-4.556,-4.5678,-4.5727,-4.5779,-4.5839,-4.5826,-4.5887,-4.5879,-4.5885,-4.5898,-4.6007,-4.6034,-4.5975,-4.6163,-4.6107,-4.6122,-4.6141,-4.6159,-4.6173,-4.6163,-4.5924,0,0,0,0,0,-4.5539,-4.561,-4.5656,-4.5756,-4.5781,-4.5806,-4.5847,-4.5848,-4.5899,-4.5919,-4.5953,-4.6003,-4.6072,-4.6118,-4.6184,-4.6308,-4.632,-4.6363,-4.6377,-4.6389,-4.64,-4.6468,-4.6488,-4.6278,-4.6278,-4.6278,0,0,-4.559,-4.563,-4.5674,-4.5767,-4.5804,-4.5878,-4.5824,-4.5903,-4.5957,-4.5931,-4.6033,-4.606,-4.6116,-4.6232,-4.6284,-4.6257,-4.6462,-4.6401,-4.6409,-4.6415,-4.648,-4.6499,-4.6517,-4.6284,-4.6283,-4.6282,0,0,-4.5719,-4.5757,-4.5844,-4.5884,-4.5943,-4.5959,-4.5981,-4.6035,-4.6052,-4.6154,-4.6136,-4.6202,-4.6321,-4.6362,-4.6398,-4.6547,-4.6528,-4.6568,-4.664,-4.6706,-4.6723,-4.6738,-4.6789,-4.6808,-4.658,-4.658,-4.658,0,-4.5774,-4.5884,-4.5891,-4.5972,-4.6014,-4.5995,-4.6083,-4.6122,-4.6199,-4.6228,-4.6197,-4.6348,-4.6384,-4.6509,-4.6545,-4.6576,-4.66,-4.656,-4.672,-4.6735,-4.6749,-4.6798,-4.6818,-4.6585,-4.6584,-4.6584,-4.6583,0,-4.5948,-4.6025,-4.6089,-4.6164,-4.6213,-4.6298,-4.6318,-4.6367,-4.6365,-4.6385,-4.649,-4.6534,-4.6609,-4.6639,-4.6638,-4.6765,-4.6746,-4.6718,-4.6661,-4.6773,-4.6819,-4.6838,-4.6591,-4.6589,-4.6588,-4.6587,0,0,-4.6108,-4.6188,-4.6211,-4.6245,-4.631,-4.6369,-4.6454,-4.6528,-4.6569,-4.6625,-4.6695,-4.6798,-4.6773,-4.6814,-4.6818,-4.6876,-4.699,-4.6841,-4.6843,-4.6866,-4.7132,-4.7151,-4.7172,-4.698,-4.6984,-4.6986,-4.7126,0,-4.6241,-4.6389,-4.6399,-4.6533,-4.6604,-4.6589,-4.6662,-4.671,-4.6732,-4.6796,-4.682,-4.6892,-4.6854,-4.6879,-4.6937,-4.6964,-4.7043,-4.6954,-4.7045,-4.7048,-4.7028,-4.7197,-4.7217,-4.7347,-4.7145,-4.7148,-4.715,0,-4.6416,-4.6476,-4.6617,-4.6673,-4.6703,-4.6769,-4.6838,-4.6899,-4.6954,-4.6966,-4.7014,-4.701,-4.7097,-4.704,-4.716,-4.71,-4.7138,-4.7157,-4.7163,-4.7169,-4.7104,-4.7206,-4.7388,-4.7407,-4.7179,-4.7177,-4.7175,0,-4.6516,-4.6633,-4.6733,-4.6763,-4.6831,-4.6878,-4.6908,-4.6959,-4.7003,-4.7064,-4.7093,-4.7163,-4.7201,-4.7256,-4.7271,-4.7229,-4.7391,-4.7335,-4.7403,-4.7403,-4.7435,-4.7432,-4.7624,-4.7464,-4.7464,-4.7463,-4.7463,0,-4.6662,-4.6749,-4.6779,-4.6839,-4.6936,-4.6948,-4.7044,-4.7072,-4.7118,-4.7184,-4.7177,-4.7239,-4.7257,-4.7323,-4.7336,-4.7433,-4.7451,-4.7463,-4.7464,-4.7462,-4.746,-4.7485,-4.7475,-4.7469,-4.7467,-4.7466,-4.7465,0,-4.6789,-4.6813,-4.692,-4.6976,-4.6993,-4.7061,-4.711,-4.7169,-4.7191,-4.7275,-4.7295,-4.733,-4.7407,-4.7429,-4.7522,-4.7531,-4.7644,-4.7639,-4.7626,-4.7625,-4.769,-4.7683,-4.7903,-4.7932,-4.7755,-4.7756,-4.7758,0,-4.6879,-4.6946,-4.701,-4.7054,-4.7086,-4.7157,-4.7203,-4.7218,-4.7265,-4.7334,-4.7385,-4.7462,-4.7523,-4.7648,-4.7681,-4.7753,-4.7748,-4.782,-4.7758,-4.7754,-4.7747,-4.7742,-4.7748,-4.783,-4.7832,-4.7834,-4.7835,0,-4.7037,-4.7046,-4.7111,-4.7182,-4.7236,-4.7292,-4.7346,-4.7383,-4.7406,-4.746,-4.7539,-4.7587,-4.7683,-4.7759,-4.7832,-4.7864,-4.7853,-4.7855,-4.7874,-4.787,-4.7859,-4.7865,-4.7655,-4.7849,-4.7848,-4.7847,-4.7846,-4.7845,-4.7147,-4.7205,-4.726,-4.7333,-4.7376,-4.7427,-4.7485,-4.7515,-4.7581,-4.766,-4.7666,-4.7752,-4.7807,-4.7903,-4.7939,-4.8007,-4.7986,-4.8014,-4.802,-4.8026,-4.8031,-4.7851,-4.8021,-4.802,-4.802,-4.802,-4.8019,0,-4.7303,-4.7338,-4.7406,-4.7481,-4.754,-4.7527,-4.7586,-4.7635,-4.7711,-4.7763,-4.7825,-4.7917,-4.7991,-4.8031,-4.8106,-4.8152,-4.8149,-4.8171,-4.8166,-4.8174,-4.8047,-4.8022,-4.8172,-4.8172,-4.8172,-4.8172,-4.8172,-4.8172,-4.739,-4.7488,-4.7504,-4.7623,-4.7658,-4.7742,-4.7777,-4.7824,-4.7866,-4.7968,-4.803,-4.8057,-4.8104,-4.8182,-4.825,-4.826,-4.8287,-4.8311,-4.8318,-4.8198,-4.8183,-4.8168,-4.8144,-4.8317,-4.8318,-4.8439,-4.8441,-4.8441]},{"header":{"parameterUnit":"m.s-1","parameterCategory":1,"la1":30.2991,"la2":30.254,"lo1":-89.0895,"lo2":-89.0444,"dy":0.0017,"dx":0.0017,"nx":28,"ny":28,"refTime":"2025-04-18T21:00:00:Z","depth":0,"parameterNumber":3,"parameterNumberName":"V-component_of_WINDS"},"data":[0,0,0,0,0,0,0,0,0,0,0,0,0,0,0,0,0,0,0,0,0,0,0,0,0,0,0,0,0,0,0,0,0,0,0,0,0,0,0,0,0,0,0,0,0,0,0,0,0,0,0,0,0,0,0,0,0,0,2.3317,2.3318,0,2.3373,2.3374,2.3375,2.336,2.3359,2.3358,2.3357,2.3411,2.3413,2.3416,0,0,0,0,0,0,0,0,0,0,0,0,0,2.3195,2.3197,2.3317,2.3318,2.3319,2.3373,2.3374,2.3375,2.336,2.3359,2.3357,2.3356,2.341,2.3413,2.3416,0,0,0,0,0,0,0,0,0,0,0,0,0,2.3249,2.3198,2.3317,2.3318,2.3318,2.3373,2.3374,2.3375,2.336,2.3359,2.3357,2.3355,2.3409,2.3413,2.3416,2.3473,0,0,2.3428,2.3429,0,0,0,0,0,0,0,0,2.3246,2.3254,2.3317,2.3318,2.3319,2.3358,2.3351,2.3408,2.3361,2.3344,2.3357,2.3355,2.3394,2.3399,2.3413,2.3475,2.3478,2.3428,2.343,2.3432,2.3433,0,0,0,0,0,0,0,2.3242,2.3251,2.3339,2.3318,2.3319,2.3315,2.3321,2.3362,2.3378,2.3346,2.3345,2.3352,2.3395,2.341,2.3415,2.3478,2.3428,2.3431,2.3434,2.3435,2.3592,2.3593,0,0,0,0,0,0,2.3238,2.3248,2.3337,2.3341,2.3278,2.3318,2.3325,2.3347,2.3377,2.3381,2.3353,2.3351,2.3404,2.341,2.3416,2.3486,2.3432,2.3435,2.3438,2.359,2.3592,2.3594,0,0,0,0,0,0,2.3236,2.3246,2.3335,2.3294,2.3305,2.3322,2.3347,2.3349,2.3364,2.3383,2.3386,2.3366,2.3403,2.3411,2.346,2.3487,2.3437,2.3441,2.3587,2.359,2.3593,2.3624,0,0,0,0,0,0,2.3232,2.3246,2.3267,2.3295,2.3308,2.3378,2.3349,2.3351,2.3371,2.3369,2.3396,2.3399,2.3402,2.3454,2.3463,2.3492,2.3443,2.3585,2.3589,2.3592,2.3621,2.3628,2.3634,0,0,0,0,0,2.3228,2.3273,2.3269,2.3279,2.3335,2.338,2.3387,2.3391,2.3373,2.3395,2.3408,2.3398,2.3483,2.3459,2.3469,2.3499,2.3583,2.3588,2.3592,2.3618,2.3626,2.3634,0,0,0,0,0,0,2.3246,2.3276,2.3272,2.3327,2.3351,2.3377,2.3405,2.34,2.3428,2.3425,2.3428,2.3434,2.3484,2.3496,2.3469,2.3556,2.353,2.3537,2.3547,2.3555,2.3561,2.3557,2.3447,0,0,0,0,0,2.3257,2.3291,2.3315,2.3361,2.3374,2.3388,2.3407,2.3409,2.3433,2.3443,2.3458,2.3482,2.3514,2.3535,2.3566,2.3623,2.3629,2.3648,2.3655,2.366,2.3666,2.3698,2.3707,2.3608,2.3608,2.3608,0,0,2.3278,2.3299,2.332,2.3366,2.3384,2.342,2.3396,2.3433,2.3459,2.3448,2.3495,2.3508,2.3534,2.3588,2.3612,2.36,2.3695,2.3666,2.367,2.3672,2.3704,2.3713,2.3721,2.3611,2.3611,2.361,0,0,2.3336,2.3355,2.3397,2.3417,2.3446,2.3456,2.3466,2.3493,2.3502,2.355,2.3542,2.3573,2.3628,2.3648,2.3665,2.3733,2.3726,2.3743,2.3777,2.3809,2.3817,2.3824,2.3849,2.3858,2.3749,2.3749,2.3749,0,2.3359,2.3412,2.3418,2.3458,2.3478,2.3471,2.3514,2.3532,2.357,2.3584,2.357,2.3641,2.3658,2.3716,2.3734,2.3747,2.3759,2.374,2.3815,2.3822,2.3829,2.3853,2.3862,2.3751,2.3751,2.375,2.375,0,2.344,2.3477,2.3507,2.3546,2.357,2.361,2.3622,2.3645,2.3646,2.3656,2.3706,2.3727,2.3762,2.3776,2.3776,2.3836,2.3827,2.3814,2.3788,2.384,2.3863,2.3872,2.3754,2.3753,2.3752,2.3752,0,0,2.3509,2.3552,2.3563,2.3581,2.3615,2.3643,2.3684,2.3721,2.3741,2.3768,2.3802,2.385,2.3839,2.3859,2.3861,2.3889,2.3943,2.3872,2.3873,2.3885,2.4012,2.4022,2.4032,2.3938,2.394,2.3942,2.401,0,2.357,2.3643,2.365,2.3715,2.375,2.3746,2.3781,2.3805,2.3817,2.3848,2.386,2.3895,2.3877,2.3889,2.3917,2.3931,2.3968,2.3926,2.397,2.3972,2.3964,2.4044,2.4054,2.4117,2.4018,2.402,2.4021,0,2.3651,2.3682,2.3751,2.3782,2.3797,2.3829,2.3864,2.3894,2.3922,2.3928,2.3952,2.3951,2.3993,2.3966,2.4024,2.3995,2.4014,2.4023,2.4026,2.403,2.4,2.4051,2.4137,2.4147,2.4035,2.4034,2.4033,0,2.3695,2.3755,2.3804,2.382,2.3857,2.388,2.3896,2.3922,2.3944,2.3975,2.3989,2.4023,2.4042,2.4069,2.4078,2.4057,2.4136,2.4109,2.4143,2.4143,2.4159,2.4158,2.4251,2.4171,2.4171,2.417,2.417,0,2.3763,2.3806,2.3825,2.3856,2.3904,2.3912,2.3959,2.3974,2.3998,2.4031,2.4029,2.406,2.4069,2.4102,2.4108,2.4157,2.4165,2.4171,2.4173,2.4172,2.4171,2.4184,2.418,2.4173,2.4172,2.4172,2.4172,0,2.3821,2.3835,2.3889,2.3921,2.393,2.3964,2.399,2.402,2.4032,2.4074,2.4084,2.4103,2.4142,2.4153,2.4199,2.4204,2.426,2.4257,2.4251,2.4251,2.4285,2.4282,2.4389,2.4404,2.4314,2.4315,2.4315,0,2.3863,2.3896,2.3932,2.3955,2.3973,2.4009,2.4033,2.4043,2.4067,2.4103,2.4128,2.4167,2.4198,2.426,2.4277,2.4313,2.4311,2.4347,2.4316,2.4315,2.4313,2.4311,2.4315,2.4352,2.4353,2.4354,2.4354,0,2.3937,2.3944,2.3978,2.4016,2.4045,2.4074,2.4103,2.4121,2.4135,2.4163,2.4204,2.4228,2.4277,2.4315,2.4352,2.4368,2.4364,2.4364,2.4374,2.4373,2.4369,2.4373,2.4267,2.4361,2.436,2.436,2.436,2.4359,2.3989,2.4019,2.405,2.4089,2.4112,2.4139,2.4169,2.4186,2.4221,2.4262,2.4265,2.431,2.4338,2.4387,2.4406,2.444,2.443,2.4443,2.4447,2.4451,2.4454,2.4364,2.4447,2.4446,2.4446,2.4446,2.4446,0,2.4064,2.4084,2.412,2.4162,2.4193,2.4188,2.422,2.4246,2.4285,2.4313,2.4345,2.4392,2.443,2.4451,2.4489,2.4513,2.4512,2.4523,2.4521,2.4525,2.446,2.4449,2.4523,2.4523,2.4523,2.4523,2.4523,2.4523,2.4107,2.4158,2.4168,2.4231,2.4251,2.4295,2.4314,2.4339,2.4362,2.4416,2.4448,2.4462,2.4488,2.4528,2.4563,2.4568,2.4582,2.4594,2.4598,2.4537,2.453,2.4522,2.4511,2.4597,2.4597,2.4661,2.4661,2.4662]}]]